AUR6BM EGJB-EGBB

Flight info

Callsign AUR6BM
Flight time 0h 49m
Altitude 15000
Route ORIST Y110 THRED Z171 SAM Q41 SILVA
Aircraft E195/M-SDE3GILORVW/S

Departure

Time 2026-04-21 19:12
Airport Guernsey Airport (EGJB)

Arrival

Time 2026-04-21 20:01
Airport Birmingham Airport (EGBB)
Time Latitude Longitude Altitude Speed Heading
2026-04-21 18:46 49.43263 -2.59682 338 ft 0 kts 177°
2026-04-21 19:02 49.43275 -2.59683 336 ft 2 kts 177°
2026-04-21 19:03 49.43291 -2.59684 338 ft 2 kts 177°
2026-04-21 19:03 49.43308 -2.59686 338 ft 2 kts 177°
2026-04-21 19:03 49.43324 -2.59687 336 ft 2 kts 176°
2026-04-21 19:03 49.43341 -2.59688 337 ft 2 kts 177°
2026-04-21 19:04 49.43358 -2.59687 337 ft 2 kts 243°
2026-04-21 19:04 49.43361 -2.59671 334 ft 1 kts 267°
2026-04-21 19:05 49.43361 -2.59672 334 ft 1 kts 267°
2026-04-21 19:06 49.43360 -2.59690 337 ft 3 kts 267°
2026-04-21 19:06 49.43356 -2.59733 337 ft 5 kts 258°
2026-04-21 19:06 49.43347 -2.59793 336 ft 7 kts 264°
2026-04-21 19:06 49.43344 -2.59876 338 ft 9 kts 268°
2026-04-21 19:07 49.43341 -2.59979 338 ft 8 kts 267°
2026-04-21 19:07 49.43341 -2.59994 338 ft 3 kts 267°
2026-04-21 19:07 49.43339 -2.60044 336 ft 7 kts 268°
2026-04-21 19:07 49.43337 -2.60137 338 ft 11 kts 268°
2026-04-21 19:08 49.43334 -2.60259 338 ft 12 kts 268°
2026-04-21 19:08 49.43330 -2.60398 338 ft 14 kts 268°
2026-04-21 19:08 49.43325 -2.60551 334 ft 15 kts 269°
2026-04-21 19:08 49.43340 -2.60718 335 ft 17 kts 279°
2026-04-21 19:09 49.43361 -2.60899 338 ft 18 kts 278°
2026-04-21 19:09 49.43361 -2.61095 339 ft 19 kts 267°
2026-04-21 19:09 49.43358 -2.61203 339 ft 8 kts 268°
2026-04-21 19:09 49.43378 -2.61286 338 ft 9 kts 306°
2026-04-21 19:10 49.43416 -2.61342 347 ft 5 kts 328°
2026-04-21 19:10 49.43441 -2.61355 344 ft 3 kts 348°
2026-04-21 19:10 49.43462 -2.61341 354 ft 3 kts 49°
2026-04-21 19:10 49.43466 -2.61311 345 ft 0 kts 87°
2026-04-21 19:11 49.43469 -2.61214 353 ft 36 kts 87°
2026-04-21 19:11 49.43492 -2.60454 341 ft 105 kts 87°
2026-04-21 19:11 49.43520 -2.59041 477 ft 151 kts 86°
2026-04-21 19:12 49.43572 -2.57344 1180 ft 167 kts 85°
2026-04-21 19:12 49.43627 -2.55665 1860 ft 167 kts 87°
2026-04-21 19:12 49.43680 -2.53854 2601 ft 173 kts 89°
2026-04-21 19:12 49.43728 -2.51951 3374 ft 182 kts 89°
2026-04-21 19:13 49.44089 -2.50027 3955 ft 201 kts 61°
2026-04-21 19:13 49.45185 -2.48714 4628 ft 211 kts 29°
2026-04-21 19:13 49.46620 -2.48061 5455 ft 216 kts 22°
2026-04-21 19:13 49.48094 -2.47490 6237 ft 221 kts 18°
2026-04-21 19:14 49.49663 -2.46932 6715 ft 239 kts 19°
2026-04-21 19:14 49.51336 -2.46251 7176 ft 256 kts 19°
2026-04-21 19:14 49.53094 -2.45553 7689 ft 270 kts 18°
2026-04-21 19:14 49.54943 -2.44839 8411 ft 275 kts 17°
2026-04-21 19:15 49.56814 -2.44126 9209 ft 278 kts 16°
2026-04-21 19:15 49.58702 -2.43403 10048 ft 281 kts 15°
2026-04-21 19:15 49.60612 -2.42670 10796 ft 285 kts 14°
2026-04-21 19:15 49.62529 -2.41941 11555 ft 289 kts 14°
2026-04-21 19:16 49.64501 -2.41182 12342 ft 293 kts 13°
2026-04-21 19:16 49.66502 -2.40416 13168 ft 298 kts 12°
2026-04-21 19:16 49.68530 -2.39634 14013 ft 302 kts 12°
2026-04-21 19:16 49.70534 -2.38472 14444 ft 322 kts 26°
2026-04-21 19:17 49.73896 -2.33383 15329 ft 359 kts 47°
2026-04-21 19:17 49.75528 -2.30372 15351 ft 370 kts 47°
2026-04-21 19:17 49.77182 -2.27268 15265 ft 377 kts 47°
2026-04-21 19:18 49.78827 -2.24176 15152 ft 373 kts 47°
2026-04-21 19:18 49.80490 -2.21063 15157 ft 376 kts 47°
2026-04-21 19:18 49.82170 -2.17928 15159 ft 376 kts 47°
2026-04-21 19:18 49.83843 -2.14798 15163 ft 376 kts 47°
2026-04-21 19:19 49.85488 -2.11714 15165 ft 376 kts 47°
2026-04-21 19:19 49.87160 -2.08571 15169 ft 376 kts 47°
2026-04-21 19:19 49.88831 -2.05418 15169 ft 375 kts 47°
2026-04-21 19:19 49.90475 -2.02336 15177 ft 375 kts 46°
2026-04-21 19:20 49.92138 -1.99223 15180 ft 375 kts 46°
2026-04-21 19:20 49.93811 -1.96089 15185 ft 374 kts 47°
2026-04-21 19:20 49.95445 -1.93002 15188 ft 373 kts 46°
2026-04-21 19:20 49.97100 -1.89881 15191 ft 373 kts 47°
2026-04-21 19:21 49.98799 -1.86848 15200 ft 369 kts 39°
2026-04-21 19:21 50.00910 -1.84700 15212 ft 361 kts 18°
2026-04-21 19:21 50.03335 -1.83903 15217 ft 355 kts
2026-04-21 19:21 50.05799 -1.83637 15197 ft 354 kts
2026-04-21 19:22 50.08251 -1.83348 15206 ft 354 kts
2026-04-21 19:22 50.10710 -1.83057 15202 ft 354 kts
2026-04-21 19:22 50.13174 -1.82751 15202 ft 355 kts
2026-04-21 19:22 50.15596 -1.81952 15205 ft 358 kts 13°
2026-04-21 19:23 50.17960 -1.80864 15203 ft 357 kts 14°
2026-04-21 19:23 50.20346 -1.79770 15204 ft 357 kts 13°
2026-04-21 19:23 50.22741 -1.78687 15209 ft 357 kts 14°
2026-04-21 19:23 50.25121 -1.77601 15215 ft 356 kts 14°
2026-04-21 19:24 50.27508 -1.76509 15213 ft 356 kts 14°
2026-04-21 19:24 50.29865 -1.75446 15214 ft 356 kts 14°
2026-04-21 19:24 50.32253 -1.74356 15218 ft 357 kts 14°
2026-04-21 19:24 50.34640 -1.73266 15218 ft 357 kts 14°
2026-04-21 19:25 50.37026 -1.72179 15220 ft 356 kts 14°
2026-04-21 19:25 50.39169 -1.71199 15218 ft 356 kts 14°
2026-04-21 19:25 50.41527 -1.70127 15220 ft 357 kts 14°
2026-04-21 19:25 50.43929 -1.69030 15219 ft 357 kts 14°
2026-04-21 19:26 50.46311 -1.67948 15224 ft 357 kts 14°
2026-04-21 19:26 50.48704 -1.66843 15226 ft 357 kts 15°
2026-04-21 19:26 50.51042 -1.65518 15234 ft 358 kts 20°
2026-04-21 19:26 50.53304 -1.63979 15233 ft 359 kts 22°
2026-04-21 19:27 50.55601 -1.62374 15234 ft 359 kts 22°
2026-04-21 19:27 50.57319 -1.61177 15234 ft 359 kts 22°
2026-04-21 19:27 50.59606 -1.59597 15235 ft 358 kts 22°
2026-04-21 19:27 50.61871 -1.58030 15231 ft 359 kts 22°
2026-04-21 19:28 50.64162 -1.56437 15235 ft 360 kts 22°
2026-04-21 19:28 50.66460 -1.54840 15237 ft 359 kts 22°
2026-04-21 19:28 50.68753 -1.53248 15241 ft 360 kts 22°
2026-04-21 19:28 50.71022 -1.51667 15238 ft 360 kts 22°
2026-04-21 19:29 50.73321 -1.50070 15240 ft 361 kts 22°
2026-04-21 19:29 50.75138 -1.48807 15256 ft 361 kts 23°
2026-04-21 19:29 50.77444 -1.47197 15256 ft 361 kts 23°
2026-04-21 19:29 50.79748 -1.45587 15259 ft 361 kts 23°
2026-04-21 19:30 50.82015 -1.44002 15262 ft 361 kts 23°
2026-04-21 19:30 50.84316 -1.42386 15264 ft 361 kts 23°
2026-04-21 19:30 50.86617 -1.40777 15267 ft 361 kts 23°
2026-04-21 19:30 50.88927 -1.39153 15267 ft 362 kts 24°
2026-04-21 19:31 50.91235 -1.37532 15268 ft 362 kts 24°
2026-04-21 19:31 50.93509 -1.35931 15266 ft 362 kts 24°
2026-04-21 19:31 50.95836 -1.34408 15266 ft 362 kts 18°
2026-04-21 19:31 50.98267 -1.33326 15269 ft 362 kts 14°
2026-04-21 19:32 51.00707 -1.32331 15265 ft 362 kts 14°
2026-04-21 19:32 51.03156 -1.31324 15268 ft 362 kts 15°
2026-04-21 19:32 51.05570 -1.30325 15270 ft 362 kts 15°
2026-04-21 19:32 51.08016 -1.29311 15262 ft 362 kts 15°
2026-04-21 19:33 51.09628 -1.28636 15265 ft 362 kts 15°
2026-04-21 19:33 51.12898 -1.27264 15263 ft 362 kts 15°
2026-04-21 19:33 51.15319 -1.26252 15265 ft 362 kts 15°
2026-04-21 19:33 51.17760 -1.25230 15268 ft 362 kts 15°
2026-04-21 19:34 51.20203 -1.24208 15286 ft 363 kts 15°
2026-04-21 19:34 51.22647 -1.23173 15288 ft 363 kts 16°
2026-04-21 19:34 51.25066 -1.22136 15288 ft 362 kts 16°
2026-04-21 19:34 51.27502 -1.21093 15290 ft 363 kts 16°
2026-04-21 19:35 51.29956 -1.20047 15290 ft 362 kts 16°
2026-04-21 19:35 51.34825 -1.17958 15291 ft 363 kts 16°
2026-04-21 19:35 51.37259 -1.16915 15290 ft 363 kts 16°
2026-04-21 19:36 51.39677 -1.15881 15293 ft 363 kts 16°
2026-04-21 19:36 51.42120 -1.14849 15294 ft 363 kts 16°
2026-04-21 19:36 51.44561 -1.13808 15292 ft 363 kts 16°
2026-04-21 19:36 51.47001 -1.12764 15292 ft 363 kts 16°
2026-04-21 19:37 51.49436 -1.11723 15297 ft 363 kts 17°
2026-04-21 19:37 51.51882 -1.10673 15292 ft 363 kts 17°
2026-04-21 19:37 51.54294 -1.09639 15293 ft 363 kts 17°
2026-04-21 19:37 51.56740 -1.08593 15292 ft 363 kts 17°
2026-04-21 19:38 51.59184 -1.07539 15292 ft 363 kts 17°
2026-04-21 19:38 51.61631 -1.06485 15293 ft 363 kts 17°
2026-04-21 19:38 51.63267 -1.05840 15297 ft 364 kts 13°
2026-04-21 19:38 51.66596 -1.05047 15296 ft 365 kts
2026-04-21 19:39 51.69114 -1.04517 15297 ft 365 kts
2026-04-21 19:39 51.71638 -1.03928 15296 ft 365 kts 10°
2026-04-21 19:39 51.74150 -1.03302 15298 ft 365 kts 11°
2026-04-21 19:39 51.76662 -1.02666 15302 ft 365 kts 11°
2026-04-21 19:40 51.79170 -1.02028 15300 ft 365 kts 11°
2026-04-21 19:40 51.81690 -1.01385 15317 ft 365 kts 11°
2026-04-21 19:40 51.84155 -1.01015 15319 ft 351 kts 358°
2026-04-21 19:40 51.86443 -1.02101 15311 ft 335 kts 333°
2026-04-21 19:41 51.88266 -1.04295 15305 ft 320 kts 320°
2026-04-21 19:41 51.89873 -1.06689 15285 ft 310 kts 320°
2026-04-21 19:41 51.91484 -1.08964 15348 ft 312 kts 322°
2026-04-21 19:41 51.93173 -1.11213 15341 ft 315 kts 323°
2026-04-21 19:42 51.94888 -1.13440 15343 ft 316 kts 323°
2026-04-21 19:42 51.96613 -1.15662 15338 ft 317 kts 324°
2026-04-21 19:42 51.98336 -1.17879 15322 ft 316 kts 324°
2026-04-21 19:42 52.00069 -1.20106 15323 ft 316 kts 324°
2026-04-21 19:43 52.01796 -1.22324 15322 ft 317 kts 324°
2026-04-21 19:43 52.03525 -1.24550 15356 ft 317 kts 323°
2026-04-21 19:43 52.05232 -1.26757 15362 ft 317 kts 324°
2026-04-21 19:43 52.06962 -1.28991 15371 ft 317 kts 323°
2026-04-21 19:44 52.08700 -1.31237 15215 ft 321 kts 323°
2026-04-21 19:44 52.10449 -1.33501 15005 ft 318 kts 323°
2026-04-21 19:44 52.12173 -1.35737 14781 ft 317 kts 323°
2026-04-21 19:44 52.13885 -1.37957 14335 ft 320 kts 323°
2026-04-21 19:45 52.15624 -1.40213 13855 ft 319 kts 324°
2026-04-21 19:45 52.17246 -1.42317 13464 ft 315 kts 324°
2026-04-21 19:45 52.18951 -1.44534 13048 ft 312 kts 323°
2026-04-21 19:45 52.20640 -1.46734 12619 ft 309 kts 323°
2026-04-21 19:46 52.22302 -1.48897 12185 ft 308 kts 324°
2026-04-21 19:46 52.23970 -1.51074 11799 ft 305 kts 324°
2026-04-21 19:46 52.25625 -1.53234 11389 ft 303 kts 324°
2026-04-21 19:46 52.27266 -1.55383 10993 ft 301 kts 324°
2026-04-21 19:47 52.28902 -1.57524 10597 ft 300 kts 324°
2026-04-21 19:47 52.30512 -1.59624 10205 ft 299 kts 324°
2026-04-21 19:47 52.32137 -1.61757 9791 ft 297 kts 324°
2026-04-21 19:47 52.33743 -1.63866 9525 ft 291 kts 324°
2026-04-21 19:48 52.35215 -1.66095 9293 ft 293 kts 308°
2026-04-21 19:48 52.36028 -1.69164 9056 ft 298 kts 284°
2026-04-21 19:48 52.36424 -1.72511 8865 ft 299 kts 280°
2026-04-21 19:48 52.36778 -1.75867 8667 ft 300 kts 280°
2026-04-21 19:49 52.37017 -1.78109 8491 ft 301 kts 280°
2026-04-21 19:49 52.37488 -1.82584 8151 ft 300 kts 280°
2026-04-21 19:49 52.37843 -1.85949 7893 ft 299 kts 280°
2026-04-21 19:49 52.38194 -1.89311 7641 ft 298 kts 280°
2026-04-21 19:50 52.38423 -1.91500 7611 ft 289 kts 280°
2026-04-21 19:50 52.38753 -1.94671 7592 ft 275 kts 280°
2026-04-21 19:50 52.39067 -1.97682 7556 ft 262 kts 280°
2026-04-21 19:50 52.39444 -2.00541 7502 ft 250 kts 294°
2026-04-21 19:51 52.40370 -2.02903 7377 ft 247 kts 318°
2026-04-21 19:51 52.41729 -2.04577 7313 ft 251 kts 331°
2026-04-21 19:51 52.43217 -2.06213 7073 ft 258 kts 330°
2026-04-21 19:51 52.44701 -2.07868 6860 ft 258 kts 330°
2026-04-21 19:52 52.46182 -2.09527 6649 ft 256 kts 330°
2026-04-21 19:52 52.47648 -2.11182 6437 ft 255 kts 330°
2026-04-21 19:52 52.49086 -2.12815 6231 ft 253 kts 330°
2026-04-21 19:52 52.50550 -2.14417 6016 ft 249 kts 338°
2026-04-21 19:53 52.52172 -2.15068 5800 ft 235 kts 10°
2026-04-21 19:53 52.53647 -2.14219 5591 ft 221 kts 43°
2026-04-21 19:53 52.54585 -2.12333 5398 ft 214 kts 62°
2026-04-21 19:53 52.55397 -2.10292 5183 ft 214 kts 60°
2026-04-21 19:54 52.56228 -2.08256 4943 ft 213 kts 60°
2026-04-21 19:54 52.57050 -2.06229 4709 ft 212 kts 60°
2026-04-21 19:54 52.57869 -2.04229 4470 ft 210 kts 60°
2026-04-21 19:54 52.58674 -2.02267 4274 ft 200 kts 60°
2026-04-21 19:55 52.59435 -2.00439 4110 ft 187 kts 60°
2026-04-21 19:55 52.60149 -1.98749 3950 ft 177 kts 60°
2026-04-21 19:55 52.60842 -1.97132 3780 ft 168 kts 60°
2026-04-21 19:55 52.61447 -1.95571 3675 ft 157 kts 73°
2026-04-21 19:56 52.61360 -1.93897 3552 ft 157 kts 120°
2026-04-21 19:56 52.60625 -1.92497 3449 ft 161 kts 124°
2026-04-21 19:56 52.59945 -1.91038 3345 ft 164 kts 132°
2026-04-21 19:56 52.58962 -1.90000 3254 ft 169 kts 143°
2026-04-21 19:57 52.57997 -1.88970 3163 ft 165 kts 135°
2026-04-21 19:57 52.57057 -1.87837 2971 ft 171 kts 138°
2026-04-21 19:57 52.56085 -1.86778 2732 ft 164 kts 138°
2026-04-21 19:57 52.55150 -1.85738 2518 ft 160 kts 136°
2026-04-21 19:58 52.54258 -1.84724 2275 ft 150 kts 136°
2026-04-21 19:58 52.53439 -1.83813 2087 ft 136 kts 135°
2026-04-21 19:58 52.52691 -1.82971 1888 ft 125 kts 135°
2026-04-21 19:58 52.51984 -1.82187 1737 ft 125 kts 136°
2026-04-21 19:59 52.51252 -1.81379 1564 ft 128 kts 136°
2026-04-21 19:59 52.50509 -1.80541 1390 ft 131 kts 136°
2026-04-21 19:59 52.49750 -1.79679 1189 ft 135 kts 138°
2026-04-21 19:59 52.48970 -1.78800 998 ft 137 kts 139°
2026-04-21 20:00 52.48182 -1.77922 792 ft 135 kts 140°
2026-04-21 20:00 52.47405 -1.77050 605 ft 135 kts 141°
2026-04-21 20:00 52.46636 -1.76194 410 ft 136 kts 141°
2026-04-21 20:00 52.45863 -1.75330 318 ft 122 kts 148°
2026-04-21 20:01 52.45271 -1.74675 326 ft 80 kts 145°
2026-04-21 20:01 52.44969 -1.74339 325 ft 19 kts 146°
2026-04-21 20:01 52.44949 -1.74222 327 ft 11 kts 73°
2026-04-21 20:01 52.44968 -1.74107 326 ft 11 kts 76°
2026-04-21 20:02 52.44991 -1.73957 322 ft 9 kts 75°
2026-04-21 20:02 52.44993 -1.73943 322 ft 2 kts 75°
2026-04-21 20:02 52.45002 -1.73913 321 ft 4 kts 58°
2026-04-21 20:02 52.45022 -1.73866 322 ft 6 kts 56°
2026-04-21 20:03 52.45048 -1.73803 322 ft 7 kts 56°
2026-04-21 20:03 52.45094 -1.73772 322 ft 8 kts 348°
2026-04-21 20:03 52.45145 -1.73824 321 ft 10 kts 326°
2026-04-21 20:03 52.45205 -1.73891 322 ft 11 kts 326°
2026-04-21 20:04 52.45274 -1.73967 321 ft 13 kts 328°
2026-04-21 20:04 52.45343 -1.73905 322 ft 13 kts 56°
2026-04-21 20:04 52.45395 -1.73780 321 ft 14 kts 56°
2026-04-21 20:04 52.45451 -1.73644 321 ft 15 kts 56°
2026-04-21 20:05 52.45493 -1.73539 322 ft 6 kts 56°
2026-04-21 20:05 52.45503 -1.73494 321 ft 4 kts 95°
2026-04-21 20:05 52.45485 -1.73455 321 ft 5 kts 143°
2026-04-21 20:05 52.45459 -1.73427 322 ft 3 kts 146°
2026-04-21 20:06 52.45451 -1.73418 322 ft 0 kts 146°